Willimantic, CT

5:31 AM EST on December 16, 2019 (GMT -0500)
Windham

Weather History for KIJD - June, 2019

Change the Weather History Date:

Monday, June 3, 2019

  Actual Average Record
Temperature  
Mean Temperature 61 °F -  
Max Temperature 69 °F 73 °F 87 °F (1967)
Min Temperature 48 °F 49 °F 32 °F (1953)
Degree Days  
Heating Degree Days 4    
Growing Degree Days 11 (Base 50)    
Moisture  
Dew Point 38 °F    
Average Humidity 47    
Maximum Humidity 74    
Minimum Humidity 26    
Precipitation  
Precipitation 0.00 in - - ()
Sea Level Pressure  
Sea Level Pressure 29.85 in    
Wind  
Wind Speed 7 mph ()    
Max Wind Speed 18 mph    
Max Gust Speed 26 mph    
Visibility 10.0 miles    
Events      
Averages and records for this station are not official NWS values.
T = Trace of Precipitation, MM = Missing Value Source: Averaged Metar Reports

Daily Weather History Graph

Daily Weather History Graph

Search for Another Location

Airport or City:

Astronomy

Jun. 03, 2019 Rise Set
Actual Time 5:15 AM EDT 8:18 PM EDT
Civil Twilight 4:42 AM EDT 8:51 PM EDT
Nautical Twilight 3:59 AM EDT 9:34 PM EDT
Astronomical Twilight 3:09 AM EDT 10:25 PM EDT
Moon 5:35 AM EDT (6/3) 8:39 PM EDT (6/3)
Length of Visible Light 16h 09m
Length of Day
15h 02m
New Moon, 0% of the Moon is Illuminated
Jun 3
New Moon
Jun 10
First Quarter
Jun 17
Full
Jun 25
Last Quarter
Jul 2
New

Hourly Weather History & Observations

Time (EDT) Temp. Dew Point Humidity Pressure Visibility Wind Dir Wind Speed Gust Speed Precip Events Conditions
12:52 AM 57.9 °F 48.0 °F 70% 29.75 in 10.0 mi WSW 3.5 mph - N/A   Overcast
1:52 AM 57.0 °F 48.9 °F 74% 29.74 in 10.0 mi NW 5.8 mph - N/A   Overcast
2:52 AM 55.9 °F 46.9 °F 72% 29.73 in 10.0 mi North 3.5 mph - N/A   Partly Cloudy
3:52 AM 55.9 °F 42.1 °F 60% 29.72 in 10.0 mi NW 5.8 mph - N/A   Clear
4:52 AM 55.0 °F 42.1 °F 62% 29.76 in 10.0 mi WNW 5.8 mph - N/A   Scattered Clouds
5:52 AM 54.0 °F 39.9 °F 59% 29.78 in 10.0 mi WNW 8.1 mph - N/A   Mostly Cloudy
6:52 AM 55.0 °F 39.0 °F 55% 29.82 in 10.0 mi West 5.8 mph - N/A   Clear
7:52 AM 57.9 °F 36.0 °F 44% 29.84 in 10.0 mi NW 6.9 mph - N/A   Clear
8:52 AM 60.1 °F 36.0 °F 41% 29.85 in 10.0 mi West 8.1 mph - N/A   Clear
9:52 AM 62.1 °F 37.9 °F 41% 29.84 in 10.0 mi West 9.2 mph - N/A   Clear
10:52 AM 64.9 °F 37.9 °F 37% 29.84 in 10.0 mi West 12.7 mph 18.4 mph N/A   Clear
11:52 AM 66.0 °F 36.0 °F 33% 29.83 in 10.0 mi WNW 15.0 mph 26.5 mph N/A   Clear
12:52 PM 68.0 °F 37.0 °F 32% 29.83 in 10.0 mi West 12.7 mph 26.5 mph N/A   Partly Cloudy
1:52 PM 66.0 °F 35.1 °F 32% 29.84 in 10.0 mi West 11.5 mph 21.9 mph N/A   Partly Cloudy
2:52 PM 68.0 °F 36.0 °F 31% 29.83 in 10.0 mi West 5.8 mph 23.0 mph N/A   Partly Cloudy
3:52 PM 69.1 °F 33.1 °F 26% 29.83 in 10.0 mi WNW 11.5 mph 20.7 mph N/A   Clear
4:52 PM 68.0 °F 32.0 °F 26% 29.85 in 10.0 mi WNW 18.4 mph 24.2 mph N/A   Clear
5:52 PM 68.0 °F 35.1 °F 30% 29.86 in 10.0 mi WNW 12.7 mph 20.7 mph N/A   Clear
6:52 PM 64.9 °F 34.0 °F 32% 29.91 in 10.0 mi NW 11.5 mph 19.6 mph N/A   Clear
7:52 PM 62.1 °F 36.0 °F 38% 29.95 in 10.0 mi NNW 13.8 mph 20.7 mph N/A   Clear
8:52 PM 57.9 °F 37.0 °F 46% 29.99 in 10.0 mi NW 9.2 mph - N/A   Clear
9:52 PM 55.9 °F 37.0 °F 49% 30.02 in 10.0 mi North 3.5 mph - N/A   Clear
10:52 PM 53.1 °F 37.9 °F 57% 30.02 in 10.0 mi Calm Calm - N/A   Clear
11:52 PM 48.9 °F 39.9 °F 71% 30.04 in 10.0 mi Calm Calm - N/A   Clear